Location: Cucq
(50.4773°N, 1.6202°E)
Time: 16:13:36
(UTC+00:00)

SL-16 R/B - Pass Details

Date: 07 August 2020
Orbit: 985 x 1007 km, 99.5° (Epoch: 25 September)

Event Time Altitude Azimuth Distance (km) Brightness Sun altitude
Exits shadow 02:13:43 26° 208° (SSW) 1,872 3.4 -17.0°
Maximum altitude 02:16:46 43° 262° (W) 1,394 3.0 -16.7°
Drops below altitude 10° 02:22:43 10° 333° (NNW) 2,791 5.2 -16.2°
Sets 02:25:22 0° 340° (NNW) 3,743 6.0 -15.9°
